Home > Weather > Nizhny Novgorod > Past weeks

Flag for Russia Weather for the Past 2 Weeks in Nizhny Novgorod, Russia

Now
30 °F

Passing clouds.


Feels Like: 20 °F
Forecast: 27 / 33 °F
Wind: 13 mph from Southeast

Location: Nizhny Novgorod/Strigino

Current Time: Feb 12, 2016 at 4:13:48 PM

Latest Report: Feb 12, 2016 at 3:30 PM


Visibility: 6 mi

Pressure: 30.24 "Hg

Humidity: 64%

Dew point: 19 °F

Location of Nizhny NovgorodLocation

Historic Weather in Nizhny Novgorod — Graph

°F

Nizhny Novgorod Temperature Yesterday

Maximum temperature yesterday: 36 °F (at 2:30 PM)
Minimum temperature yesterday: 19 °F (at 7:30 AM)
Average temperature yesterday: 28 °F

High & Low Weather Summary for the Past Weeks

 TemperatureHumidityPressure
High37 °F (Jan 31, 2:00 PM)100% (Feb 3, 4:00 AM)30.33 "Hg (Feb 3, 4:00 AM)
Low19 °F (Jan 28, 6:30 PM)41% (Feb 9, 5:30 PM)29.30 "Hg (Feb 1, 6:30 AM)
Average31 °F79%29.82 "Hg
* Reported Jan 28 3:00 PM — Feb 12 3:00 PM, Nizhny Novgorod, Weather by CustomWeather, © 2016

Note: Actual official high and low records may vary slightly from our data, if they occured in-between our weather recording intervals... More about our weather records

Advertising

Nizhny Novgorod Weather History for the Previous 24 Hours

 ConditionsComfort  
Time TempWeatherWind HumidityBarometerVisibility
3:00 PM
Fri, Feb 12
30 °FPassing clouds.15 mph64%30.24 "Hg6 mi
2:30 PM30 °FPassing clouds.15 mph69%30.27 "HgN/A
2:00 PM30 °FPassing clouds.17 mph69%30.27 "HgN/A
1:30 PM30 °FScattered clouds.17 mph69%30.27 "HgN/A
1:00 PM30 °FScattered clouds.13 mph69%30.27 "HgN/A
12:30 PM30 °FScattered clouds.15 mph69%30.30 "HgN/A
12:00 PM28 °FPassing clouds.17 mph74%30.30 "HgN/A
11:30 AM28 °FPassing clouds.15 mph69%30.30 "HgN/A
11:00 AM27 °FScattered clouds.13 mph74%30.30 "HgN/A
10:30 AM27 °FPartly sunny.15 mph74%30.30 "HgN/A
10:00 AM25 °FPartly sunny.13 mph80%30.33 "HgN/A
9:30 AM25 °FOvercast.13 mph80%30.33 "HgN/A
9:00 AM23 °FOvercast.13 mph80%30.33 "HgN/A
8:30 AM23 °FOvercast.15 mph80%30.33 "HgN/A
8:00 AM21 °FOvercast.13 mph80%30.33 "HgN/A
7:30 AM21 °FOvercast.10 mph80%30.33 "HgN/A
7:00 AM21 °FOvercast.13 mph80%30.33 "HgN/A
6:30 AM19 °FOvercast.13 mph86%30.33 "HgN/A
6:00 AM19 °FClear.13 mph79%30.33 "Hg10 mi
5:30 AM19 °FClear.13 mph79%30.33 "Hg10 mi
5:00 AM21 °FClear.13 mph74%30.33 "Hg10 mi
4:30 AM21 °FClear.13 mph74%30.33 "Hg10 mi
4:00 AM23 °FClear.15 mph68%30.30 "Hg10 mi
3:30 AM23 °FClear.15 mph68%30.30 "Hg10 mi
3:00 AM25 °FClear.10 mph63%30.30 "Hg10 mi
2:30 AM25 °FClear.10 mph63%30.30 "Hg10 mi
2:00 AM27 °FClear.13 mph59%30.30 "Hg10 mi
12:00 AM28 °FClear.8 mph59%30.30 "Hg10 mi
11:30 PM
Thu, Feb 11
28 °FClear.8 mph59%30.30 "Hg10 mi
11:00 PM28 °FClear.8 mph59%30.30 "Hg10 mi
10:30 PM28 °FClear.6 mph59%30.30 "Hg10 mi
10:00 PM28 °FClear.6 mph64%30.30 "Hg10 mi
9:30 PM28 °FClear.8 mph64%30.30 "Hg10 mi
9:00 PM28 °FClear.8 mph69%30.33 "Hg10 mi
8:30 PM28 °FClear.8 mph69%30.33 "Hg10 mi
8:00 PM30 °FClear.10 mph64%30.33 "Hg10 mi
7:30 PM28 °FClear.8 mph69%30.33 "Hg10 mi
7:00 PM28 °FClear.6 mph74%30.33 "Hg10 mi
6:30 PM30 °FClear.8 mph69%30.33 "Hg10 mi
6:00 PM30 °FClear.8 mph69%30.33 "Hg10 mi
5:30 PM32 °FSunny.10 mph69%30.33 "Hg10 mi
5:00 PM32 °FSunny.10 mph69%30.33 "Hg10 mi
4:30 PM34 °FSunny.10 mph65%30.33 "Hg10 mi
4:00 PM34 °FSunny.8 mph70%30.33 "Hg10 mi
Weather by CustomWeather, © 2016

See weather overviewHow to use our weather pages